Location: W�rzburg
(49.7529°N, 9.8822°E)
Time: 02:09:02
(UTC+01:00)

ISS - Pass Details

Date: 09 January 2018
Orbit: 401 x 406 km, 51.6° (Epoch: 17 January)

Event Time Altitude Azimuth Distance (km) Brightness Sun altitude
Exits shadow 05:50:18 46° 68° (ENE) 555 -2.9 -22.6°
Drops below altitude 10° 05:52:49 10° 91° (E) 1,466 0.1 -22.2°
Sets 05:54:55 0° 94° (E) 2,326 1.5 -21.8°
